| time (UTC) | temp F | wind direction | speed MPH | gust MPH | rain 1hr in | rain 24hr in | rain mn in | humidity % | barometer mb |
| 20260504040031 | 52 | 270 | 2.0 | 2.0 | 0.00 | 0.00 | 0.00 | 47 | 1035.3 |
| 20260504035026 | 52 | 203 | 0.0 | 1.0 | 0.00 | 0.00 | 0.00 | 46 | 1035.3 |
| 20260504034026 | 53 | 45 | 1.0 | 2.0 | 0.00 | 0.00 | 0.00 | 44 | 1035.2 |
| 20260504033028 | 52 | 90 | 2.0 | 2.0 | 0.00 | 0.00 | 0.00 | 49 | 1035.3 |
| 20260504032025 | 52 | 293 | 1.0 | 2.0 | 0.00 | 0.00 | 0.00 | 45 | 1035.3 |
| 20260504031026 | 52 | 113 | 0.0 | 0.0 | 0.00 | 0.00 | 0.00 | 43 | 1035.3 |
| 20260504030028 | 52 | 225 | 1.0 | 2.0 | 0.00 | 0.00 | 0.00 | 43 | 1035.4 |
| 20260504025026 | 52 | 293 | 0.0 | 0.0 | 0.00 | 0.00 | 0.00 | 42 | 1035.3 |
| 20260504024026 | 53 | 248 | 3.0 | 4.0 | 0.00 | 0.00 | 0.00 | 43 | 1035.3 |
| 20260504023026 | 53 | 248 | 0.0 | 0.0 | 0.00 | 0.00 | 0.00 | 39 | 1035.0 |
| 20260504022026 | 53 | 293 | 0.0 | 0.0 | 0.00 | 0.00 | 0.00 | 42 | 1035.1 |
| 20260504021026 | 54 | 113 | 1.0 | 2.0 | 0.00 | 0.00 | 0.00 | 39 | 1035.0 |
| 20260504020026 | 53 | 23 | 1.0 | 2.0 | 0.00 | 0.00 | 0.00 | 40 | 1034.7 |
| 20260504015026 | 54 | 68 | 2.0 | 2.0 | 0.00 | 0.00 | 0.00 | 40 | 1034.7 |
| 20260504014026 | 54 | 45 | 3.0 | 4.0 | 0.00 | 0.00 | 0.00 | 39 | 1034.7 |
| 20260504013025 | 54 | 360 | 1.0 | 2.0 | 0.00 | 0.00 | 0.00 | 37 | 1034.6 |
| 20260504012026 | 55 | 360 | 1.0 | 2.0 | 0.00 | 0.00 | 0.00 | 37 | 1034.4 |
| 20260504011025 | 55 | 68 | 3.0 | 4.0 | 0.00 | 0.00 | 0.00 | 36 | 1034.3 |
| 20260504010026 | 56 | 68 | 3.0 | 4.0 | 0.00 | 0.00 | 0.00 | 33 | 1034.2 |
| 20260504005026 | 56 | 68 | 3.0 | 5.0 | 0.00 | 0.00 | 0.00 | 35 | 1034.2 |
| 20260504004026 | 56 | 113 | 2.0 | 3.0 | 0.00 | 0.00 | 0.00 | 33 | 1034.1 |
| 20260504003026 | 56 | 90 | 1.0 | 2.0 | 0.00 | 0.00 | 0.00 | 33 | 1034.1 |
| 20260504002026 | 58 | 113 | 3.0 | 3.0 | 0.00 | 0.00 | 0.00 | 30 | 1034.0 |
| 20260504001025 | 56 | 338 | 0.0 | 0.0 | 0.00 | 0.00 | 0.00 | 33 | 1033.9 |
| 20260504000026 | 58 | 203 | 0.0 | 0.0 | 0.00 | 0.00 | 0.00 | 30 | 1034.0 |
| 20260503235026 | 59 | 360 | 0.0 | 0.0 | 0.00 | 0.00 | 0.00 | 26 | 1033.8 |
| 20260503234026 | 60 | 315 | 1.0 | 1.0 | 0.00 | 0.00 | 0.00 | 25 | 1033.9 |
| 20260503233027 | 62 | 338 | 1.0 | 1.0 | 0.00 | 0.00 | 0.00 | 24 | 1033.9 |
| 20260503232026 | 63 | 360 | 1.0 | 2.0 | 0.00 | 0.00 | 0.00 | 23 | 1033.9 |
| 20260503231026 | 64 | 248 | 3.0 | 4.0 | 0.00 | 0.00 | 0.00 | 22 | 1033.8 |
| 20260503230026 | 63 | 248 | 1.0 | 2.0 | 0.00 | 0.00 | 0.00 | 23 | 1033.7 |
| 20260503225025 | 63 | 135 | 4.0 | 6.0 | 0.00 | 0.00 | 0.00 | 22 | 1033.7 |
| 20260503224026 | 64 | 293 | 2.0 | 2.0 | 0.00 | 0.00 | 0.00 | 22 | 1033.7 |
| 20260503223026 | 64 | 293 | 2.0 | 2.0 | 0.00 | 0.00 | 0.00 | 22 | 1033.6 |
| 20260503222026 | 64 | 338 | 3.0 | 4.0 | 0.00 | 0.00 | 0.00 | 23 | 1033.6 |
| 20260503221025 | 64 | 360 | 2.0 | 3.0 | 0.00 | 0.00 | 0.00 | 22 | 1033.6 |
| 20260503220026 | 65 | 293 | 0.0 | 1.0 | 0.00 | 0.00 | 0.00 | 21 | 1033.8 |
| 20260503215026 | 66 | 338 | 2.0 | 3.0 | 0.00 | 0.00 | 0.00 | 21 | 1033.9 |
| 20260503214026 | 63 | 293 | 4.0 | 6.0 | 0.00 | 0.00 | 0.00 | 24 | 1033.8 |
| 20260503213026 | 64 | 68 | 1.0 | 2.0 | 0.00 | 0.00 | 0.00 | 21 | 1033.7 |
| 20260503212028 | 65 | 293 | 1.0 | 2.0 | 0.00 | 0.00 | 0.00 | 23 | 1033.9 |
| 20260503211026 | 65 | 315 | 2.0 | 2.0 | 0.00 | 0.00 | 0.00 | 22 | 1033.9 |
| 20260503210026 | 64 | 293 | 3.0 | 4.0 | 0.00 | 0.00 | 0.00 | 22 | 1034.0 |
| 20260503205026 | 64 | 270 | 2.0 | 3.0 | 0.00 | 0.00 | 0.00 | 21 | 1034.1 |
| 20260503204028 | 62 | 315 | 3.0 | 5.0 | 0.00 | 0.00 | 0.00 | 23 | 1034.1 |
| 20260503203027 | 63 | 113 | 1.0 | 2.0 | 0.00 | 0.00 | 0.00 | 22 | 1034.2 |
| 20260503202026 | 61 | 180 | 2.0 | 3.0 | 0.00 | 0.00 | 0.00 | 23 | 1034.4 |
| 20260503201026 | 63 | 270 | 2.0 | 2.0 | 0.00 | 0.00 | 0.00 | 22 | 1034.4 |
| 20260503200028 | 61 | 248 | 7.0 | 8.0 | 0.00 | 0.00 | 0.00 | 23 | 1034.6 |
| 20260503195026 | 62 | 270 | 3.0 | 4.0 | 0.00 | 0.00 | 0.00 | 24 | 1034.7 |
| 20260503194026 | 63 | 270 | 1.0 | 2.0 | 0.00 | 0.00 | 0.00 | 26 | 1034.9 |
| 20260503193026 | 62 | 248 | 5.0 | 6.0 | 0.00 | 0.00 | 0.00 | 23 | 1034.9 |
| 20260503192027 | 59 | 68 | 7.0 | 9.0 | 0.00 | 0.00 | 0.00 | 27 | 1035.0 |
| 20260503191034 | 61 | 180 | 4.0 | 5.0 | 0.00 | 0.00 | 0.00 | 26 | 1035.3 |
| 20260503190026 | 61 | 293 | 3.0 | 4.0 | 0.00 | 0.00 | 0.00 | 26 | 1035.5 |
| 20260503185031 | 59 | 248 | 3.0 | 4.0 | 0.00 | 0.00 | 0.00 | 27 | 1035.6 |
| 20260503184026 | 58 | 23 | 2.0 | 3.0 | 0.00 | 0.00 | 0.00 | 31 | 1035.8 |
| 20260503183026 | 59 | 225 | 4.0 | 7.0 | 0.00 | 0.00 | 0.00 | 26 | 1035.8 |
| 20260503182026 | 61 | 113 | 2.0 | 2.0 | 0.00 | 0.00 | 0.00 | 26 | 1036.0 |
| 20260503181026 | 59 | 338 | 2.0 | 3.0 | 0.00 | 0.00 | 0.00 | 27 | 1036.0 |
| 20260503180026 | 58 | 225 | 3.0 | 5.0 | 0.00 | 0.00 | 0.00 | 27 | 1036.2 |
| 20260503175026 | 59 | 248 | 2.0 | 2.0 | 0.00 | 0.00 | 0.00 | 29 | 1036.1 |
| 20260503174026 | 59 | 360 | 5.0 | 7.0 | 0.00 | 0.00 | 0.00 | 29 | 1036.2 |
| 20260503173026 | 59 | 338 | 1.0 | 2.0 | 0.00 | 0.00 | 0.00 | 29 | 1036.2 |
| 20260503172028 | 57 | 270 | 4.0 | 5.0 | 0.00 | 0.00 | 0.00 | 28 | 1036.4 |
| 20260503171026 | 58 | 248 | 5.0 | 8.0 | 0.00 | 0.00 | 0.00 | 29 | 1036.5 |
| 20260503131026 | 47 | 248 | 9.0 | 11.0 | 0.00 | 0.00 | 0.00 | 42 | 1037.8 |
| 20260503081026 | 42 | 45 | 9.0 | 11.0 | 0.00 | 0.00 | 0.00 | 63 | 1034.9 |
| 20260503072026 | 44 | 338 | 2.0 | 3.0 | 0.00 | 0.00 | 0.00 | 63 | 1034.5 |
| 20260503071026 | 43 | 360 | 2.0 | 2.0 | 0.00 | 0.00 | 0.00 | 63 | 1034.4 |
| 20260503055026 | 43 | 23 | 2.0 | 3.0 | 0.00 | 0.00 | 0.00 | 66 | 1034.3 |
| 20260503054027 | 43 | 23 | 3.0 | 4.0 | 0.00 | 0.00 | 0.00 | 64 | 1034.3 |
| 20260503053026 | 43 | 338 | 1.0 | 1.0 | 0.00 | 0.00 | 0.00 | 63 | 1034.3 |
| 20260503052025 | 44 | 23 | 2.0 | 2.0 | 0.00 | 0.00 | 0.00 | 63 | 1034.2 |
| 20260503051026 | 44 | 68 | 3.0 | 3.0 | 0.00 | 0.00 | 0.00 | 62 | 1034.3 |
| 20260503050027 | 44 | 360 | 4.0 | 5.0 | 0.00 | 0.00 | 0.00 | 62 | 1034.4 |
| 20260503045026 | 44 | 23 | 5.0 | 6.0 | 0.00 | 0.00 | 0.00 | 60 | 1034.3 |
| 20260503044026 | 45 | 45 | 5.0 | 6.0 | 0.00 | 0.00 | 0.00 | 59 | 1034.4 |
| 20260503043028 | 45 | 338 | 3.0 | 4.0 | 0.00 | 0.00 | 0.00 | 58 | 1034.4 |
| 20260503042028 | 45 | 338 | 2.0 | 2.0 | 0.00 | 0.00 | 0.00 | 57 | 1034.3 |
| 20260503041028 | 46 | 338 | 3.0 | 4.0 | 0.00 | 0.00 | 0.00 | 56 | 1034.3 |